Location: �A�n Sefra
(34.9681°N, 0.4346°E)
Time: 23:38:54
(UTC+00:00)

Lacrosse 5 - Pass Details

Date: 21 October 2019
Orbit: 715 x 724 km, 57.0° (Epoch: 12 November)

Event Time Altitude Azimuth Distance (km) Brightness Sun altitude
Rises 18:18:46 0° 329° (NNW) 3,120 5.6 -13.5°
Reaches altitude 10° 18:21:27 10° 340° (NNW) 2,197 4.6 -14.0°
Maximum altitude 18:25:49 28° 40° (NE) 1,314 2.9 -14.9°
Enters shadow 18:27:30 23° 73° (ENE) 1,479 2.9 -15.2°
